Change the Weather History Date:

Thursday, December 13, 2012

  Actual Average (EGFF) Record (EGFF)
Temperature  
Mean Temperature 34 °F -  
Max Temperature 39 °F 45 °F 53 °F (1998)
Min Temperature 30 °F 37 °F 30 °F (2012)
Degree Days  
Heating Degree Days 31    
Moisture  
Dew Point 29 °F    
Average Humidity 78    
Maximum Humidity 87    
Minimum Humidity 59    
Precipitation  
Precipitation 0.00 in - - ()
Sea Level Pressure  
Sea Level Pressure 29.59 in    
Wind  
Wind Speed 8 mph ()    
Max Wind Speed 18 mph    
Max Gust Speed -    
Visibility 6.4 miles    
Events      
Averages and records for this station are not official NWS values.
T = Trace of Precipitation, MM = Missing Value Source: Averaged Metar Reports

Daily Weather History Graph

Daily Weather History Graph

Search for Another Location

Airport or City:

Trip Planner

Search our weather history database for the weather conditions in past years. The results will help you decide how hot, cold, wet, or windy it might be!

Date:

Astronomy

Dec. 13, 2012 Rise Set
Actual Time 8:16 AM GMT 4:07 PM GMT
Civil Twilight 7:35 AM GMT 4:47 PM GMT
Nautical Twilight 6:52 AM GMT 5:30 PM GMT
Astronomical Twilight 6:11 AM GMT 6:11 PM GMT
Moon 8:07 AM GMT (12/13) 4:36 PM GMT (12/13)
Length of Visible Light 9h 11m
Length of Day
7h 51m
New Moon, 0% of the Moon is Illuminated
Dec 13
New Moon
Dec 20
First Quarter
Dec 28
Full
Jan 5
Last Quarter
Jan 11
New

Hourly Weather History & Observations

Time (GMT) Temp. Windchill Dew Point Humidity Pressure Visibility Wind Dir Wind Speed Gust Speed Precip Events Conditions
12:50 AM 33.8 °F 26.4 °F 28.4 °F 81% 29.77 in 6.2 mi East 9.2 mph - N/A   Overcast
1:50 AM 35.6 °F 28.0 °F 28.4 °F 75% 29.74 in 6.2 mi East 10.4 mph - N/A   Mostly Cloudy
2:50 AM 35 °F - 29 °F 69% 29.74 in 10 mi East 8.1 mph - -   Mostly Cloudy
2:50 AM 33.8 °F 27.0 °F 28.4 °F 81% 29.74 in 6.2 mi East 8.1 mph - N/A   Mostly Cloudy
3:50 AM 32.0 °F 24.8 °F 28.4 °F 87% 29.71 in 6.2 mi East 8.1 mph - N/A   Partly Cloudy
4:50 AM 32.0 °F 24.8 °F 26.6 °F 80% 29.68 in 6.2 mi East 8.1 mph - N/A   Unknown
5:50 AM 31 °F - 27 °F 80% 29.68 in 7 mi East 5.8 mph - -  
5:50 AM 30.2 °F 24.3 °F 26.6 °F 86% 29.65 in 6.2 mi East 5.8 mph - N/A   Unknown
6:50 AM 32.0 °F 24.8 °F 28.4 °F 87% 29.65 in 6.2 mi East 8.1 mph - N/A   Unknown
7:50 AM 30.2 °F 22.6 °F 26.6 °F 86% 29.65 in 6.2 mi ENE 8.1 mph - N/A   Unknown
8:50 AM 31 °F - 28 °F 81% 29.66 in 7 mi ENE 5.8 mph - -  
8:50 AM 32.0 °F 26.4 °F 28.4 °F 87% 29.65 in - ENE 5.8 mph - N/A   Clear
9:50 AM 32.0 °F 26.4 °F 28.4 °F 87% 29.65 in 6.2 mi ENE 5.8 mph - N/A   Scattered Clouds
10:50 AM 35.6 °F 29.2 °F 28.4 °F 75% 29.62 in 6.2 mi East 8.1 mph - N/A   Partly Cloudy
11:50 AM 37 °F - 28 °F 59% 29.62 in 10 mi East 10.4 mph - -  
11:50 AM 37.4 °F 30.3 °F 28.4 °F 70% 29.62 in 6.2 mi East 10.4 mph - N/A   Scattered Clouds
12:50 PM 37.4 °F 29.3 °F 28.4 °F 70% 29.56 in 6.2 mi ESE 12.7 mph - N/A   Scattered Clouds
1:50 PM 37.4 °F 29.8 °F 28.4 °F 70% 29.56 in 6.2 mi ESE 11.5 mph - N/A   Partly Cloudy
2:50 PM 37 °F - 28 °F 60% 29.56 in 9 mi ESE 9.2 mph - -  
2:50 PM 37.4 °F 30.8 °F 28.4 °F 70% 29.53 in 6.2 mi ESE 9.2 mph - N/A   Partly Cloudy
3:50 PM 35.6 °F 29.9 °F 28.4 °F 75% 29.53 in 6.2 mi East 6.9 mph - N/A   Unknown
4:50 PM 33.8 °F 27.7 °F 28.4 °F 81% 29.53 in 6.2 mi East 6.9 mph - N/A   Scattered Clouds
5:50 PM 35 °F - 29 °F 71% 29.52 in 7 mi ESE 10.4 mph - -   Mostly Cloudy
5:50 PM 35.6 °F 28.0 °F 28.4 °F 75% 29.50 in 6.2 mi ESE 10.4 mph - N/A   Mostly Cloudy
6:50 PM 35.6 °F 27.1 °F 30.2 °F 81% 29.47 in 6.2 mi East 12.7 mph - N/A   Mostly Cloudy
7:50 PM 37.4 °F 28.9 °F 32.0 °F 81% 29.44 in 5.6 mi ESE 13.8 mph - N/A   Overcast
8:50 PM 37 °F - 32 °F 77% 29.47 in 5 mi ESE 16.1 mph - -   Overcast
8:50 PM 37.4 °F 28.2 °F 32.0 °F 81% 29.44 in 5.0 mi ESE 16.1 mph - N/A   Overcast
9:50 PM 37.4 °F 27.5 °F 33.8 °F 87% 29.42 in 4.3 mi ESE 18.4 mph - N/A   Overcast
10:50 PM 39.2 °F 29.8 °F 35.6 °F 87% 29.36 in 3.1 mi ESE 18.4 mph - N/A   Mostly Cloudy